Weather History for Pittsburg, KS

Change the Weather History Date:

Thursday, October 20, 2011

  Actual Average (KJLN) Record (KJLN)
Temperature  
Mean Temperature 42 °F 59 °F  
Max Temperature 55 °F 70 °F 89 °F (1979)
Min Temperature 29 °F 47 °F 24 °F (1989)
Degree Days  
Heating Degree Days 23 7  
Month to date heating degree days 111  
Since 1 July heating degree days 153  
Cooling Degree Days 0 1  
Month to date cooling degree days 38  
Year to date cooling degree days 1680  
Moisture  
Dew Point 27 °F    
Average Humidity 59    
Maximum Humidity 90    
Minimum Humidity 28    
Precipitation  
Precipitation 0.00 in 0.14 in 4.35 in (1983)
Month to date precipitation 2.61  
Year to date precipitation 38.53  
Sea Level Pressure  
Sea Level Pressure 30.05 in    
Wind  
Wind Speed 3 mph (NW)    
Max Wind Speed 13 mph    
Max Gust Speed 17 mph    
Visibility 10 miles    
Events      
T = Trace of Precipitation, MM = Missing Value Source: NWS Daily Summary

Daily Weather History Graph

Daily Weather History Graph

Search for Another Location

Airport:

Trip Planner

Search our weather history database for the weather conditions in past years. The results will help you decide how hot, cold, wet, or windy it might be!

Date:

Astronomy

Oct. 20, 2011 Rise Set
Actual Time 7:31 AM CDT 6:35 PM CDT
Civil Twilight 7:05 AM CDT 7:01 PM CDT
Nautical Twilight 6:34 AM CDT 7:32 PM CDT
Astronomical Twilight 6:04 AM CDT 8:02 PM CDT
Moon 12:26 AM CDT (10/20) 2:37 PM CDT (10/20)
Length of Visible Light 11h 56m
Length of Day
11h 03m
Last Quarter, 44% of the Moon is Illuminated
Oct 20
Last Quarter
Oct 26
New
Nov 2
First Quarter
Nov 10
Full
Nov 18
Last Quarter

Hourly Weather History & Observations

Time (CDT) Temp. Windchill Dew Point Humidity Pressure Visibility Wind Dir Wind Speed Gust Speed Precip Events Conditions
12:15 AM 37.0 °F - 27.9 °F 69% 30.01 in 10.0 mi Calm Calm - N/A   Clear
12:35 AM 36.7 °F - 28.4 °F 72% 30.01 in 10.0 mi Calm Calm - N/A   Clear
12:55 AM 36.3 °F - 28.0 °F 72% 30.02 in 10.0 mi Calm Calm - N/A   Clear
1:15 AM 36.3 °F - 27.5 °F 70% 30.02 in 10.0 mi Calm Calm - N/A   Clear
1:35 AM 35.6 °F - 26.6 °F 70% 30.02 in 10.0 mi Calm Calm - N/A   Clear
1:55 AM 34.2 °F 31.2 °F 26.4 °F 73% 30.02 in 10.0 mi NW 3.5 mph - N/A   Clear
2:15 AM 34.2 °F - 26.1 °F 72% 30.02 in 10.0 mi Calm Calm - N/A   Clear
2:35 AM 34.2 °F - 25.7 °F 71% 30.02 in 10.0 mi Calm Calm - N/A   Clear
2:55 AM 34.2 °F 31.2 °F 25.9 °F 72% 30.01 in 10.0 mi NNW 3.5 mph - N/A   Clear
3:15 AM 34.2 °F - 25.9 °F 72% 30.01 in 10.0 mi Calm Calm - N/A   Clear
3:35 AM 34.2 °F - 26.6 °F 74% 30.01 in 10.0 mi Calm Calm - N/A   Clear
3:55 AM 34.2 °F - 26.8 °F 74% 30.01 in 10.0 mi Calm Calm - N/A   Clear
4:15 AM 34.2 °F 31.2 °F 26.6 °F 74% 30.02 in 10.0 mi WNW 3.5 mph - N/A   Clear
4:35 AM 34.2 °F 31.2 °F 26.2 °F 73% 30.02 in 10.0 mi WNW 3.5 mph - N/A   Clear
5:35 AM 31.8 °F - 24.4 °F 74% 30.02 in 10.0 mi Calm Calm - N/A   Clear
5:55 AM 31.6 °F 26.0 °F 24.4 °F 75% 30.02 in 10.0 mi NNW 5.8 mph - N/A   Clear
6:15 AM 32.0 °F 27.5 °F 23.9 °F 72% 30.03 in 10.0 mi NNW 4.6 mph - N/A   Clear
6:35 AM 32.0 °F 27.5 °F 24.4 °F 74% 30.03 in 10.0 mi NNW 4.6 mph - N/A   Clear
7:15 AM 30.6 °F - 23.9 °F 76% 30.04 in 10.0 mi Calm Calm - N/A   Clear
7:35 AM 30.0 °F - 23.7 °F 77% 30.04 in 10.0 mi Calm Calm - N/A   Clear
7:55 AM 29.8 °F 26.3 °F 24.3 °F 80% 30.05 in 10.0 mi West 3.5 mph - N/A   Clear
8:15 AM 31.5 °F - 25.2 °F 78% 30.06 in 10.0 mi Calm Calm - N/A   Clear
8:35 AM 32.5 °F - 26.2 °F 78% 30.07 in 10.0 mi Calm Calm - N/A   Clear
8:55 AM 34.2 °F 31.2 °F 26.6 °F 74% 30.07 in 10.0 mi NNW 3.5 mph - N/A   Clear
9:15 AM 35.8 °F 30.1 °F 27.3 °F 71% 30.08 in 10.0 mi NNW 6.9 mph - N/A   Clear
9:35 AM 37.0 °F 32.4 °F 28.0 °F 70% 30.09 in 10.0 mi NNW 5.8 mph - N/A   Clear
9:55 AM 39.2 °F 34.2 °F 28.9 °F 67% 30.09 in 10.0 mi NNW 6.9 mph - N/A   Clear
10:15 AM 41.0 °F 37.1 °F 29.1 °F 63% 30.09 in 10.0 mi NW 5.8 mph - N/A   Clear
10:35 AM 42.6 °F 39.0 °F 29.8 °F 61% 30.09 in 10.0 mi NW 5.8 mph - N/A   Clear
10:55 AM 44.2 °F 39.7 °F 30.2 °F 58% 30.09 in 10.0 mi NNW 8.1 mph - N/A   Clear
11:15 AM 46.2 °F 41.7 °F 30.6 °F 54% 30.09 in 10.0 mi NW 9.2 mph - N/A   Clear
11:55 AM 49.3 °F - 30.6 °F 49% 30.09 in 10.0 mi NW 8.1 mph - N/A   Clear
12:15 PM 49.3 °F - 30.0 °F 48% 30.08 in 10.0 mi NNW 6.9 mph - N/A   Clear
12:35 PM 49.3 °F - 28.2 °F 44% 30.08 in 10.0 mi WNW 8.1 mph - N/A   Clear
12:55 PM 49.3 °F - 28.0 °F 44% 30.07 in 10.0 mi WNW 5.8 mph - N/A   Clear
1:15 PM 49.6 °F - 27.1 °F 42% 30.07 in 10.0 mi West 5.8 mph 17.3 mph N/A   Clear
1:35 PM 50.5 °F - 26.4 °F 39% 30.06 in 10.0 mi NNW 11.5 mph - N/A   Clear
1:55 PM 52.3 °F - 27.0 °F 37% 30.05 in 10.0 mi NNW 12.7 mph 16.1 mph N/A   Clear
2:15 PM 54.0 °F - 27.0 °F 35% 30.04 in 10.0 mi WNW 9.2 mph - N/A   Clear
2:35 PM 54.5 °F - 25.9 °F 33% 30.04 in 10.0 mi NW 4.6 mph - N/A   Clear
2:55 PM 54.5 °F - 25.0 °F 32% 30.04 in 10.0 mi NW 9.2 mph - N/A   Clear
3:35 PM 54.5 °F - 24.1 °F 31% 30.04 in 10.0 mi NW 10.4 mph - N/A   Clear
3:55 PM 54.5 °F - 23.4 °F 30% 30.04 in 10.0 mi North 6.9 mph 17.3 mph N/A   Clear
4:15 PM 55.0 °F - 23.0 °F 29% 30.03 in 10.0 mi NW 9.2 mph - N/A   Clear
4:35 PM 55.2 °F - 22.8 °F 28% 30.03 in 10.0 mi NW 5.8 mph - N/A   Clear
4:55 PM 55.4 °F - 22.6 °F 28% 30.03 in 10.0 mi NW 11.5 mph 17.3 mph N/A   Clear
5:15 PM 54.5 °F - 22.1 °F 28% 30.03 in 10.0 mi NNW 6.9 mph 16.1 mph N/A   Clear
5:35 PM 54.5 °F - 22.6 °F 29% 30.03 in 10.0 mi NW 6.9 mph - N/A   Clear
5:55 PM 54.5 °F - 23.4 °F 30% 30.03 in 10.0 mi NNW 6.9 mph - N/A   Clear
6:15 PM 54.5 °F - 24.8 °F 32% 30.04 in 10.0 mi NNW 3.5 mph - N/A   Clear
6:35 PM 51.4 °F - 26.4 °F 38% 30.04 in 10.0 mi Calm Calm - N/A   Clear
7:15 PM 45.5 °F 44.2 °F 31.3 °F 58% 30.05 in 10.0 mi WNW 3.5 mph - N/A   Clear
7:35 PM 44.6 °F - 29.1 °F 55% 30.06 in 10.0 mi Calm Calm - N/A   Clear
8:15 PM 39.9 °F - 30.9 °F 70% 30.07 in 10.0 mi Calm Calm - N/A   Clear
8:35 PM 39.2 °F - 31.1 °F 73% 30.07 in 10.0 mi Calm Calm - N/A   Clear
9:35 PM 37.8 °F - 31.3 °F 77% 30.09 in 10.0 mi Calm Calm - N/A   Clear
9:55 PM 36.7 °F - 34.0 °F 90% 30.10 in 10.0 mi Calm Calm - N/A   Clear
10:15 PM 36.7 °F - 33.6 °F 89% 30.11 in 10.0 mi Calm Calm - N/A   Clear
10:35 PM 36.1 °F - 34.7 °F 94% 30.11 in 10.0 mi Calm Calm - N/A   Clear
10:55 PM 35.1 °F - 33.1 °F 92% 30.12 in 10.0 mi Calm Calm - N/A   Clear
11:15 PM 34.2 °F - 33.4 °F 97% 30.12 in 10.0 mi Calm Calm - N/A   Clear
11:35 PM 34.2 °F - 33.4 °F 97% 30.12 in 10.0 mi Calm Calm - N/A   Clear